Regional Weather Roundup
Issued by NWS Glasgow, MT

Home | Current Version | Previous Version | Text Only | Print | Product List | Glossary On
Versions: 1 2 3 4 5 6 7 8 9 10 11 12 13 14 15 16 17 18 19 20 21 22 23 24 25 26 27 28 29 30 31 32 33 34 35 36 37 38 39 40 41 42 43 44 45 46 47 48 49 50
000
ASUS45 KGGW 010415
RWRGGW
HOURLY WEATHER ROUNDUP FOR NORTHEAST MONTANA
NATIONAL WEATHER SERVICE GLASGOW MONTANA
900 PM MST SAT JAN 31 2015

NOTE: "FAIR" INDICATES FEW OR NO CLOUDS BELOW 12,000 FEET WITH NO
SIGNIFICANT WEATHER AND/OR OBSTRUCTIONS TO VISISBILITY.

NORTHEAST MONTANA


CITY           SKY/WX    TMP DP  RH WIND       PRES   REMARKS
GLASGOW        LGT SNOW   5  -1  76 NE7       30.44R
PLENTYWOOD       N/A      0  -4  83 NE10        N/A  WCI -16
WOLF POINT     LGT SNOW   4  -3  73 E13       30.46R WCI -13
JORDAN           N/A      7   2  80 NE7       30.38R
WINNETT          N/A     11   8  88 NE10        N/A  WCI  -3
SIDNEY         MOCLDY     1  -4  78 N10       30.46R WCI -14
GLENDIVE       PTCLDY     1  -2  85 NE13      30.36R WCI -16
SCOBEY           N/A     -1 -11  62 N9        30.37S

FORT PECK REPORTS


CITY           SKY/WX    TMP DP  RH WIND       PRES   REMARKS
FORT PECK        N/A      5   2  87 NE10        N/A  WCI -10
THE PINES        N/A      6   3  87 NE12G20     N/A  WCI  -9

SOUTHEAST MONTANA


CITY           SKY/WX    TMP DP  RH WIND       PRES   REMARKS
BILLINGS       FLURRIES  15   8  73 NE13      30.27S
MILES CITY     FLURRIES   8   4  83 N13       30.32R WCI  -8
BAKER          LGT SNOW   5   1  83 NE13      30.26R FOG     WCI -12
LIVINGSTON     FLURRIES  18  13  80 CALM      30.19S

CENTRAL MONTANA


CITY           SKY/WX    TMP DP  RH WIND       PRES   REMARKS
HAVRE          LGT SNOW   7   2  80 NE7       30.42S
LEWISTOWN      FLURRIES   9   4  80 W8        30.27S
GREAT FALLS    CLOUDY     9   5  85 CALM      30.33S
CUT BANK       MOCLDY     0  -3  87 N6        30.31F
HELENA         CLOUDY    17   8  67 N9        30.28R
BUTTE          MOCLDY    21  16  81 SE5       30.12S
BOZEMAN        CLOUDY    19  12  74 SW3       30.21R

WESTERN MONTANA


CITY           SKY/WX    TMP DP  RH WIND       PRES   REMARKS
MISSOULA       MOCLDY    32  25  75 NW8       30.20R
KALISPELL      NOT AVBL

NORTH DAKOTA


CITY           SKY/WX    TMP DP  RH WIND       PRES   REMARKS
WILLISTON      CLOUDY    -2 -10  69 NE9       30.46R
DICKINSON      LGT SNOW  -1  -6  79 NE15      30.29R WCI -21
MINOT          CLOUDY    -7 -15  68 N15       30.47R WCI -28
BISMARCK       LGT SNOW  -1  -7  75 NE16G23   30.40R WCI -21

SOUTHERN SASKATCHEWAN


CITY           SKY/WX    TMP DP  RH WIND       PRES   REMARKS
REGINA         PTCLDY    -6 -13  71 NW5       30.51S
ESTEVAN        CLOUDY    -8 -17  65 E6        30.48S
SWIFT CURRENT  CLOUDY    -4  -8  84 VRB2      30.42R



USA.gov is the U.S. government's official web portal to all federal, state and local government web resources and services.